• In Netherlands
  • List of Countries
  • For 7 days
  • Water Temperature
  • Satellite Maps
  • Weather Map
  • Weather Widgets
  • user-avatar
    Login

    Hourly Weather La-Plata

    Today, 23 March, Thursday

    Time Temperature Precipitation Wind Pressure Humidity
    00:00 +19°C° 0.2 mm 3 mps 762 mmHg 94%
    01:00 +19°C° 0.2 mm 3 mps 762 mmHg 94%
    02:00 +19°C° 0.2 mm 3 mps 761 mmHg 94%
    03:00 +19°C° 0.1 mm 2 mps 761 mmHg 95%
    04:00 +18°C° 0.1 mm 2 mps 761 mmHg 95%
    05:00 +18°C° 0.1 mm 2 mps 761 mmHg 95%
    06:00 +20°C° 0.1 mm 2 mps 761 mmHg 91%
    07:00 +21°C° 0.1 mm 2 mps 761 mmHg 86%
    08:00 +24°C° 0.1 mm 2 mps 761 mmHg 81%
    09:00 +25°C° 0.3 mm 2 mps 761 mmHg 75%
    10:00 +26°C° 0.3 mm 2 mps 761 mmHg 69%
    11:00 +28°C° 0.3 mm 2 mps 760 mmHg 62%
    12:00 +28°C° 1 mm 2 mps 760 mmHg 61%
    13:00 +28°C° 1 mm 3 mps 759 mmHg 61%
    14:00 +28°C° 1 mm 3 mps 759 mmHg 60%
    15:00 +28°C° 0 mm 3 mps 759 mmHg 60%
    16:00 +28°C° 0 mm 4 mps 758 mmHg 60%
    17:00 +27°C° 0 mm 4 mps 758 mmHg 60%
    18:00 +25°C° 0 mm 4 mps 758 mmHg 70%
    19:00 +22°C° 0 mm 4 mps 758 mmHg 80%
    20:00 +20°C° 0 mm 4 mps 759 mmHg 90%
    21:00 +20°C° 0 mm 3 mps 759 mmHg 91%
    22:00 +20°C° 0 mm 3 mps 759 mmHg 92%
    23:00 +20°C° 0 mm 3 mps 759 mmHg 93%

    Tomorrow, 24 March, Friday

    Time Temperature Precipitation Wind Pressure Humidity
    00:00 +20°C° 0 mm 3 mps 759 mmHg 93%
    01:00 +19°C° 0 mm 2 mps 759 mmHg 94%
    02:00 +19°C° 0 mm 2 mps 759 mmHg 94%
    03:00 +18°C° 0 mm 2 mps 759 mmHg 94%
    04:00 +19°C° 0 mm 1 mps 759 mmHg 95%
    05:00 +18°C° 0 mm 1 mps 759 mmHg 95%
    06:00 +20°C° 0 mm 1 mps 759 mmHg 90%
    07:00 +22°C° 0 mm 1 mps 759 mmHg 84%
    08:00 +24°C° 0 mm 1 mps 759 mmHg 79%
    09:00 +26°C° 0 mm 1 mps 759 mmHg 71%
    10:00 +27°C° 0 mm 2 mps 759 mmHg 63%
    11:00 +29°C° 0 mm 2 mps 759 mmHg 55%
    12:00 +29°C° 0 mm 2 mps 759 mmHg 53%
    13:00 +30°C° 0 mm 3 mps 758 mmHg 50%
    14:00 +30°C° 0 mm 3 mps 757 mmHg 48%
    15:00 +29°C° 0 mm 4 mps 757 mmHg 51%
    16:00 +29°C° 0 mm 4 mps 757 mmHg 54%
    17:00 +28°C° 0 mm 4 mps 757 mmHg 57%
    18:00 +26°C° 0 mm 5 mps 758 mmHg 67%
    19:00 +22°C° 0 mm 5 mps 758 mmHg 77%
    20:00 +20°C° 0 mm 5 mps 758 mmHg 86%
    21:00 +20°C° 0 mm 5 mps 759 mmHg 89%
    22:00 +20°C° 0 mm 4 mps 759 mmHg 92%
    23:00 +20°C° 0 mm 4 mps 759 mmHg 96%

    Day after tomorrow, 25 March, Saturday

    Time Temperature Precipitation Wind Pressure Humidity
    00:00 +20°C° 0 mm 4 mps 759 mmHg 96%
    01:00 +20°C° 0 mm 4 mps 759 mmHg 96%
    02:00 +20°C° 0 mm 4 mps 759 mmHg 96%
    03:00 +20°C° 0 mm 4 mps 759 mmHg 96%
    04:00 +19°C° 0 mm 4 mps 759 mmHg 96%
    05:00 +19°C° 0 mm 4 mps 759 mmHg 96%
    06:00 +20°C° 0 mm 4 mps 759 mmHg 91%
    07:00 +21°C° 0 mm 4 mps 760 mmHg 86%
    08:00 +23°C° 0 mm 4 mps 760 mmHg 82%
    09:00 +25°C° 0 mm 4 mps 760 mmHg 72%
    10:00 +27°C° 0 mm 4 mps 760 mmHg 62%
    11:00 +29°C° 0 mm 4 mps 760 mmHg 53%
    12:00 +30°C° 0 mm 4 mps 759 mmHg 50%
    13:00 +30°C° 0 mm 4 mps 759 mmHg 48%
    14:00 +32°C° 0 mm 5 mps 758 mmHg 45%
    15:00 +30°C° 0 mm 5 mps 758 mmHg 48%
    16:00 +29°C° 0 mm 6 mps 758 mmHg 52%
    17:00 +28°C° 0 mm 6 mps 758 mmHg 55%
    18:00 +26°C° 0 mm 6 mps 758 mmHg 65%
    19:00 +23°C° 0 mm 6 mps 759 mmHg 75%
    20:00 +22°C° 0 mm 6 mps 759 mmHg 86%
    21:00 +22°C° 0 mm 6 mps 759 mmHg 82%
    22:00 +22°C° 0 mm 6 mps 759 mmHg 79%
    23:00 +23°C° 0 mm 7 mps 759 mmHg 76%

    26 March, Sunday

    Time Temperature Precipitation Wind Pressure Humidity
    00:00 +22°C° 0 mm 6 mps 759 mmHg 79%
    01:00 +22°C° 0 mm 6 mps 759 mmHg 82%
    02:00 +21°C° 0 mm 6 mps 759 mmHg 85%
    03:00 +21°C° 0 mm 6 mps 759 mmHg 88%
    04:00 +20°C° 0 mm 5 mps 759 mmHg 92%
    05:00 +20°C° 0 mm 5 mps 759 mmHg 95%
    06:00 +21°C° 0 mm 5 mps 759 mmHg 90%
    07:00 +22°C° 0 mm 5 mps 759 mmHg 84%
    08:00 +23°C° 0 mm 6 mps 759 mmHg 79%
    09:00 +25°C° 0 mm 5 mps 759 mmHg 73%
    10:00 +26°C° 0 mm 5 mps 759 mmHg 66%
    11:00 +28°C° 0 mm 4 mps 758 mmHg 60%
    12:00 +28°C° 0 mm 4 mps 758 mmHg 57%
    13:00 +29°C° 0 mm 4 mps 757 mmHg 53%
    14:00 +30°C° 0 mm 4 mps 756 mmHg 50%
    15:00 +29°C° 0 mm 4 mps 756 mmHg 53%
    16:00 +29°C° 0 mm 4 mps 756 mmHg 56%
    17:00 +28°C° 0 mm 4 mps 756 mmHg 59%
    18:00 +26°C° 0 mm 4 mps 757 mmHg 68%
    19:00 +23°C° 0 mm 4 mps 757 mmHg 78%
    20:00 +21°C° 0 mm 4 mps 758 mmHg 88%
    21:00 +21°C° 0 mm 4 mps 758 mmHg 89%
    22:00 +21°C° 0 mm 4 mps 758 mmHg 89%
    23:00 +21°C° 0 mm 4 mps 757 mmHg 90%

    27 March, Monday

    Time Temperature Precipitation Wind Pressure Humidity
    00:00 +21°C° 0 mm 4 mps 757 mmHg 90%
    01:00 +21°C° 0 mm 4 mps 757 mmHg 90%
    02:00 +21°C° 0 mm 4 mps 757 mmHg 90%
    03:00 +21°C° 0 mm 4 mps 757 mmHg 90%
    04:00 +20°C° 0 mm 3 mps 757 mmHg 91%
    05:00 +20°C° 0 mm 3 mps 757 mmHg 92%
    06:00 +21°C° 0 mm 3 mps 758 mmHg 86%
    07:00 +24°C° 0 mm 3 mps 758 mmHg 80%
    08:00 +25°C° 0 mm 3 mps 759 mmHg 74%
    09:00 +27°C° 0 mm 3 mps 759 mmHg 66%
    10:00 +29°C° 0 mm 2 mps 758 mmHg 57%
    11:00 +31°C° 0 mm 2 mps 758 mmHg 49%
    12:00 +31°C° 0 mm 3 mps 758 mmHg 46%
    13:00 +33°C° 0 mm 4 mps 757 mmHg 44%
    14:00 +33°C° 0 mm 4 mps 756 mmHg 42%
    15:00 +32°C° 0 mm 5 mps 756 mmHg 46%
    16:00 +30°C° 0 mm 5 mps 756 mmHg 50%
    17:00 +29°C° 0 mm 6 mps 756 mmHg 54%
    18:00 +28°C° 0 mm 6 mps 757 mmHg 62%
    19:00 +26°C° 0 mm 6 mps 757 mmHg 70%
    20:00 +24°C° 0 mm 6 mps 758 mmHg 78%
    21:00 +25°C° 0 mm 5 mps 758 mmHg 78%
    22:00 +25°C° 0 mm 5 mps 758 mmHg 78%
    23:00 +25°C° 0 mm 4 mps 758 mmHg 78%

    28 March, Tuesday

    Time Temperature Precipitation Wind Pressure Humidity
    00:00 +23°C° 0 mm 5 mps 758 mmHg 77%
    01:00 +23°C° 0 mm 5 mps 758 mmHg 77%
    02:00 +23°C° 0 mm 5 mps 758 mmHg 76%
    03:00 +22°C° 0 mm 5 mps 758 mmHg 80%
    04:00 +22°C° 0 mm 5 mps 758 mmHg 84%
    05:00 +21°C° 0 mm 5 mps 759 mmHg 88%
    06:00 +22°C° 0 mm 5 mps 759 mmHg 83%
    07:00 +23°C° 0 mm 6 mps 759 mmHg 79%
    08:00 +24°C° 0 mm 6 mps 760 mmHg 75%
    09:00 +27°C° 0 mm 6 mps 760 mmHg 68%
    10:00 +29°C° 0 mm 5 mps 760 mmHg 61%
    11:00 +30°C° 0 mm 5 mps 760 mmHg 54%
    12:00 +32°C° 0 mm 5 mps 759 mmHg 51%
    13:00 +33°C° 0 mm 5 mps 759 mmHg 48%
    14:00 +33°C° 0 mm 5 mps 758 mmHg 45%
    15:00 +32°C° 0 mm 5 mps 758 mmHg 48%
    16:00 +30°C° 0 mm 5 mps 758 mmHg 51%
    17:00 +30°C° 0 mm 6 mps 758 mmHg 54%
    18:00 +28°C° 0 mm 6 mps 758 mmHg 59%
    19:00 +27°C° 0 mm 5 mps 759 mmHg 64%
    20:00 +26°C° 0 mm 5 mps 759 mmHg 69%
    21:00 +26°C° 0 mm 6 mps 759 mmHg 69%
    22:00 +26°C° 0 mm 6 mps 759 mmHg 69%
    23:00 +26°C° 0 mm 6 mps 759 mmHg 69%
    Show more